Location: Zagreb
(45.8150°N, 15.9819°E)
Time: 11:27:24
(UTC+02:00)

Envisat - Visible Passes

Search period start: 08 May 2026 00:00
Search period end: 18 May 2026 00:00
Orbit: 761 x 762 km, 98.4° (Epoch: 7 May)

Date Brightness Start Highest point End Pass type
(mag) Time Alt. Az. Time Alt. Az. Time Alt. Az.
8 May 5.5 02:06:16 10° ENE 02:08:02 12° E 02:09:47 10° ESE visible
8 May 3.0 03:42:34 10° NNE 03:47:40 89° ESE 03:51:16 20° SSW visible
9 May 4.0 03:04:58 10° NNE 03:09:46 41° E 03:13:04 19° SSE visible
9 May 4.1 04:44:14 10° N 04:48:30 28° WNW 04:52:46 10° WSW visible
10 May 5.1 02:28:01 10° NE 02:31:38 19° E 02:34:52 11° SE visible
10 May 3.2 04:05:57 10° N 04:10:56 57° WNW 04:14:59 15° SSW visible
11 May 3.2 03:28:05 10° NNE 03:33:09 67° ESE 03:36:47 19° S visible
12 May 4.4 02:50:41 10° NNE 02:55:09 31° E 02:58:35 15° SSE visible
12 May 3.8 04:29:29 10° N 04:34:06 36° WNW 04:38:42 10° SW visible
13 May 5.4 02:14:14 10° NE 02:16:57 14° E 02:19:38 10° ESE visible
13 May 3.0 03:51:22 10° N 03:56:28 77° WNW 04:00:31 16° SSW visible
14 May 3.7 03:13:40 10° NNE 03:18:36 49° E 03:22:18 17° S visible
15 May 4.9 02:36:30 10° NE 02:40:31 23° E 02:44:06 12° SE visible
15 May 3.4 04:14:49 10° N 04:19:41 48° WNW 04:24:13 12° SW visible
16 May 5.6 02:01:38 10° E 02:02:13 10° E 02:02:48 10° E visible
16 May 3.0 03:36:51 10° NNE 03:41:57 80° ESE 03:46:00 16° S visible
17 May 4.2 02:59:18 10° NNE 03:04:00 37° E 03:07:47 15° SSE visible
17 May 4.0 04:38:25 10° N 04:42:50 31° WNW 04:47:13 10° SW visible
